Tracking 25648 objects as of 16-May-2022
HD Live streaming from Space Station
objects crossing your sky now

COSMOS 2251 DEB

Track COSMOS 2251 DEB now!
10-day predictions


NORAD ID: 37086
Int'l Code: 1993-036BFG
Perigee: 646.4 km
Apogee: 722.4 km
Inclination: 74.0 °
Period: 98.3 minutes
Semi major axis: 7055 km
RCS: 0.0013 m2 (small)
Launch date: June 16, 1993
Source: Commonwealth of Independent States (former USSR) (CIS)
Launch site: PLESETSK MISSILE AND SPACE COMPLEX (PKMTR)

Note: This is SATELLITE DEBRIS
aabbcc
Your satellite tracking list
Your tracking list is empty




NASA's NSSDC Master Catalog

Two Line Element Set (TLE):
1 37086U 93036BFG 22135.62987651  .00008001  00000-0  14675-2 0  9996
2 37086  74.0025 220.0149 0053852 315.3762  44.3077 14.64950360496611
Source of the keplerian elements: AFSPC